Temperature
15 16 16 17 17 18 20 23 25 24 25 24 24 24 24 22 22 19 18 18 18 18 18 18 17 17 17 17 17 17 17 17 17 17 17 17 17 17 17 17 16 16 16 16 16 16 16 16 16
15 15 16 17 18 19 21 23 24 24 24 23 23 24 23 22 20 18 18 18 17 17 17 17 17 17 17 17 17 17 17 17 16 17 17 17 16 16 16 16 16 16 16 16 16 16 16 16 16
15 16 17 18 19 20 22 24 23 23 23 23 23 23 23 21 20 18 17 17 17 17 17 17 17 17 17 17 17 17 16 16 16 16 16 16 16 16 16 16 16 16 16 16 16 16 16 16 16
15 16 18 18 19 22 23 23 22 23 23 23 22 22 21 19 19 18 18 17 17 17 17 17 17 17 17 17 16 16 16 16 16 16 16 16 16 16 16 16 16 16 16 16 16 16 16 16 16
15 17 17 18 19 22 23 23 23 22 22 23 22 21 19 19 18 18 17 17 17 16 16 16 16 16 16 16 16 16 16 16 16 16 16 16 16 16 16 16 16 16 16 16 15 15 15 16 15
16 18 18 18 20 22 23 23 23 22 22 23 22 21 18 18 18 17 17 17 17 16 16 16 16 16 16 16 16 16 16 16 16 16 16 16 16 16 16 16 15 15 15 15 15 15 15 15 15
16 17 17 19 20 21 22 23 22 22 22 22 22 21 18 17 17 17 17 17 16 16 16 16 16 16 16 16 15 15 16 16 16 16 16 16 15 15 15 15 15 15 15 15 15 15 15 15 15
16 17 18 19 20 21 22 22 22 21 21 21 21 21 18 17 17 17 17 16 16 16 15 15 15 15 15 15 15 15 15 15 15 15 15 15 15 15 15 15 15 15 15 15 15 15 15 15 15
15 16 17 19 20 21 21 21 20 20 20 20 20 19 18 17 17 17 16 16 16 15 15 15 15 15 15 15 15 15 15 15 15 15 15 15 15 14 14 14 14 15 15 15 15 15 15 15 14
15 15 17 19 19 20 20 20 20 19 19 19 19 18 18 17 17 16 16 16 15 15 15 15 15 15 15 15 15 15 14 14 14 14 14 14 14 14 14 14 14 14 14 14 14 14 14 14 14
16 16 17 18 18 18 19 19 19 19 18 19 18 18 17 16 16 16 16 16 15 15 15 15 15 15 14 14 14 14 14 14 14 14 14 14 14 14 14 14 14 14 14 14 14 14 13 13 13
16 17 17 17 17 17 17 18 18 18 18 19 18 18 17 16 16 16 16 16 15 15 14 14 14 14 14 14 14 14 14 14 13 13 13 13 13 13 13 13 13 13 13 13 13 13 13 13 13
15 16 16 16 16 16 16 17 17 17 18 18 17 17 16 16 16 16 16 16 15 15 14 14 14 14 14 14 14 13 13 13 13 13 13 13 13 13 13 13 13 13 13 13 13 13 13 13 12
16 16 16 16 16 15 15 16 16 16 17 17 17 16 16 16 16 16 15 15 15 14 14 14 14 14 14 14 13 13 13 13 13 13 13 13 13 13 12 12 12 12 12 13 12 12 12 12 12
15 14 15 15 15 15 15 14 15 16 16 16 16 16 16 16 16 15 15 15 15 14 14 14 14 14 14 13 13 13 13 13 13 13 13 13 12 12 12 12 12 12 12 12 12 12 12 12 12
14 13 13 15 15 15 14 13 16 17 16 16 16 16 16 16 16 15 15 15 14 14 14 14 13 13 13 13 13 13 13 13 13 12 12 12 12 12 12 12 12 12 12 12 12 12 12 12 12
13 12 13 15 15 15 14 14 16 17 17 16 16 16 16 16 15 15 15 14 14 14 14 13 13 13 13 13 13 12 12 12 12 12 12 12 12 12 12 11 12 12 11 11 11 11 11 11 11
12 13 14 15 15 15 14 14 15 16 16 16 16 16 16 16 15 15 15 14 14 14 13 13 13 13 12 12 12 12 12 12 12 12 12 11 11 11 11 11 11 11 11 11 11 11 11 11 11
14 14 14 15 15 14 13 14 15 15 15 15 16 16 16 16 15 15 14 14 14 13 13 13 13 12 12 12 12 12 12 12 11 11 11 11 11 11 11 11 11 11 11 11 11 10 10 10 10
12 12 13 13 14 14 13 13 14 15 15 16 16 16 16 16 15 15 14 14 13 13 13 12 12 12 12 11 11 11 11 11 11 11 11 11 11 11 11 11 11 10 10 10 10 10 10 10 9
12 12 12 13 13 13 12 12 13 15 16 16 16 16 16 15 15 14 14 13 13 12 12 12 12 11 11 11 11 11 11 11 11 11 11 11 11 10 10 10 10 10 10 10 10 9 9 9 9
11 12 13 12 11 10 12 10 13 14 15 15 15 15 15 15 14 14 13 13 12 12 12 12 12 11 11 11 11 11 10 10 10 10 10 10 10 10 10 10 10 10 9 9 9 9 9 9 9
11 12 12 12 11 10 11 10 11 14 14 14 14 15 15 15 14 13 13 12 12 11 11 11 11 11 11 11 11 10 10 10 10 10 10 10 10 10 10 10 9 9 9 9 9 9 9 8 8
11 11 11 10 9 8 9 10 11 13 14 14 14 14 14 14 13 13 12 11 11 11 11 11 11 10 10 10 10 10 10 10 9 9 9 9 9 9 9 9 9 9 8 8 8 8 8 8 8
10 9 8 8 7 8 11 11 11 13 13 13 13 13 13 13 12 12 11 11 10 10 10 10 10 10 10 10 10 9 9 9 9 9 9 9 9 9 9 8 8 8 8 8 8 8 8 7 7
8 9 8 8 8 9 11 11 12 12 12 13 13 13 12 12 12 11 10 10 9 9 9 10 10 9 9 9 9 9 9 9 9 8 8 8 8 8 8 8 8 8 8 8 7 7 7 7 7
8 8 9 8 9 9 10 12 12 12 11 11 11 11 11 11 11 10 10 9 9 9 9 9 9 9 9 9 9 9 9 8 8 8 8 8 8 8 8 7 8 8 7 7 7 7 6 6 6
9 9 8 7 7 8 10 11 10 10 10 11 10 10 10 10 10 10 9 9 8 8 8 8 8 8 8 8 8 8 8 8 8 7 7 7 7 7 7 7 7 7 7 7 6 6 6 6 5
7 7 7 7 8 8 9 10 11 10 10 10 10 10 10 9 9 9 9 9 8 8 8 8 8 8 8 8 8 8 8 7 7 7 7 7 7 7 6 6 6 6 6 6 6 5 5 5 5
7 7 7 6 7 8 8 8 10 9 10 10 10 10 10 9 9 9 8 8 8 8 7 7 7 7 7 7 7 7 7 7 6 6 6 6 6 6 6 6 6 5 5 5 5 5 5 4 4
Wind_Speed
11 12 9 3 4 6 8 6 4 2 3 5 7 5 5 5 5 9 5 7 11 13 14 13 12 12 12 11 11 11 10 10 10 9 9 9 9 9 8 9 9 9 9 8 8 8 8 8 8
11 9 5 4 5 7 7 9 6 3 6 6 4 2 3 5 8 9 6 7 11 13 14 12 12 12 12 11 11 11 10 10 9 9 8 8 8 8 8 8 8 8 8 8 8 8 8 7 7
10 9 4 4 6 7 4 3 5 6 8 4 2 1 2 5 8 7 8 7 10 13 13 13 13 12 12 11 11 10 10 9 9 8 7 7 7 7 7 7 8 8 8 8 8 7 7 7 6
6 4 5 7 12 9 5 3 7 5 4 3 3 3 4 6 5 8 8 7 10 12 13 13 13 12 11 11 10 10 10 9 8 8 7 6 6 6 7 7 7 7 7 7 7 6 6 6 5
5 4 6 9 12 9 5 3 6 3 4 5 4 3 6 5 10 10 7 7 10 11 12 13 13 12 11 10 10 9 9 8 8 7 7 6 6 6 6 6 6 6 6 6 6 5 5 5 4
4 5 7 11 11 9 6 3 4 4 4 4 4 3 5 8 8 8 6 6 10 11 12 12 12 12 11 10 9 9 9 8 8 7 6 6 5 5 5 6 6 6 5 5 5 4 4 4 4
5 5 9 11 8 7 6 4 5 5 5 4 3 3 7 8 8 7 7 6 9 10 11 10 11 11 10 10 10 9 8 8 7 6 6 5 5 5 5 5 5 5 5 4 4 3 3 3 3
5 5 8 10 9 6 2 3 1 2 1 1 1 2 6 8 8 7 7 7 8 8 9 9 9 9 9 8 9 9 8 7 7 6 5 5 5 5 4 4 4 4 4 4 3 3 2 2 2
5 5 8 8 7 3 3 3 2 3 2 1 2 4 8 11 8 7 7 6 6 6 7 7 7 7 8 8 8 8 7 6 6 5 5 4 4 4 4 4 4 4 4 4 4 3 3 3 3
5 6 8 4 5 2 2 2 2 2 4 3 3 6 9 9 7 7 7 7 7 6 5 6 6 6 6 6 7 6 5 5 4 3 3 2 2 3 3 4 4 4 4 3 4 4 4 3 3
7 8 7 6 5 4 2 2 2 5 6 6 7 8 8 8 7 7 7 7 7 6 4 5 5 5 5 4 4 3 3 4 2 2 3 3 2 2 3 3 3 3 3 2 3 3 4 4 3
9 9 7 6 3 4 4 4 5 8 5 1 3 7 8 8 8 7 7 7 8 7 6 4 5 4 4 4 3 3 3 2 2 1 2 2 1 1 2 2 2 1 2 1 2 2 2 3 3
13 9 7 6 4 5 6 7 7 8 5 1 1 5 7 8 7 6 5 6 7 8 7 5 5 4 4 3 2 2 2 2 3 2 2 2 1 1 1 1 1 1 1 1 1 1 1 2 2
6 8 8 8 7 7 8 9 9 9 7 6 6 7 8 8 7 7 6 6 6 7 8 6 5 5 4 3 2 2 2 2 3 3 2 2 2 1 1 0 0 0 0 0 1 1 1 2 1
6 7 8 10 9 7 7 11 13 12 10 9 9 8 9 8 8 7 7 7 7 7 7 7 6 5 5 4 3 2 2 3 2 2 2 2 2 1 1 1 1 1 1 0 0 1 1 1 1
6 7 8 8 11 8 7 11 9 8 10 10 10 9 9 9 9 8 7 7 7 6 7 7 6 6 5 4 3 2 2 3 2 3 2 1 1 1 1 1 1 1 0 1 0 1 0 1 1
8 8 10 7 10 9 10 9 5 4 7 9 9 9 9 9 9 8 8 7 7 7 7 7 6 6 5 4 3 2 2 3 2 2 2 1 0 0 1 1 1 0 0 0 1 0 0 1 2
7 9 9 9 7 8 10 10 7 6 7 9 9 8 8 8 9 8 8 7 7 7 7 7 7 5 5 3 2 2 1 1 2 2 2 1 0 0 1 0 1 0 0 1 1 1 1 1 1
8 8 9 5 2 5 9 12 11 10 10 10 9 9 9 8 8 8 8 8 7 7 7 7 7 6 4 3 3 2 2 1 1 1 1 1 1 1 1 1 1 1 1 1 1 1 1 1 1
11 11 10 4 2 4 8 12 12 12 12 11 11 10 9 8 8 7 7 7 7 7 7 7 7 6 5 3 3 2 2 2 2 1 1 1 1 2 2 1 1 1 1 2 2 1 1 1 0
12 11 10 7 3 5 7 10 13 12 12 11 10 8 7 8 8 8 7 6 6 6 7 6 6 6 5 4 3 2 2 1 1 2 2 2 2 1 2 2 2 2 2 2 3 2 2 2 1
10 8 9 7 5 4 4 6 7 7 9 10 10 9 9 7 7 7 7 7 7 6 6 6 6 5 5 5 4 4 3 3 3 2 2 2 2 2 2 2 2 2 2 2 2 2 2 3 2
5 2 5 6 6 6 6 6 7 7 8 9 8 8 7 7 7 7 7 6 6 6 6 5 5 5 4 4 4 4 3 2 2 1 2 2 2 2 2 2 2 2 2 2 2 2 2 2 3
3 1 2 3 3 7 10 9 7 5 6 6 6 6 6 6 6 6 6 6 5 5 5 5 5 4 4 4 4 4 4 3 2 2 2 2 1 1 1 2 1 1 1 2 2 3 2 2 3
5 4 3 4 5 7 8 8 6 2 2 3 5 5 5 6 6 6 6 6 5 5 5 5 5 4 4 4 4 4 4 4 4 3 2 1 0 1 1 1 1 1 1 1 2 2 3 3 3
8 7 5 5 5 4 5 7 3 4 5 4 5 6 6 5 5 6 6 6 5 5 5 5 5 4 4 4 4 4 4 3 2 2 2 1 1 1 1 1 1 1 1 1 1 2 3 3 3
6 7 4 2 2 2 5 4 3 5 5 5 5 5 5 4 4 5 5 5 5 4 4 4 4 4 3 4 4 3 3 3 3 2 2 1 1 1 0 1 1 1 1 2 2 2 3 3 3
4 4 3 4 4 5 6 7 4 7 6 6 6 6 4 4 4 3 4 4 4 4 3 3 4 3 3 3 3 3 3 3 3 2 2 1 1 1 1 1 1 2 2 2 2 2 3 3 3
5 4 4 4 4 4 4 1 2 6 6 6 6 6 5 4 3 2 3 4 4 3 3 3 3 2 2 2 3 3 3 3 2 2 1 1 1 1 1 1 1 2 2 2 2 3 3 4 4
4 4 4 4 4 4 2 1 3 6 6 6 6 5 5 4 3 3 3 3 4 3 3 3 2 2 2 2 3 3 3 3 2 2 1 1 0 0 0 1 1 2 2 2 2 3 3 4 5
Wind_Direction
283 259 242 239 234 232 240 241 238 107 55 37 26 18 21 20 43 108 149 107 113 117 118 117 116 116 113 112 110 106 106 106 104 103 103 103 102 103 102 101 101 99 96 94 94 95 92 92 90
282 253 237 235 237 233 232 220 228 141 91 67 35 15 40 72 88 107 112 103 115 113 114 120 116 115 114 111 112 111 108 108 107 106 104 104 103 103 102 101 99 99 96 93 92 94 94 93 92
270 254 235 227 230 236 249 172 131 102 103 116 124 13 33 76 96 107 117 126 114 113 114 118 120 117 114 112 110 112 112 109 110 110 109 108 107 106 104 102 100 100 98 95 92 93 95 96 95
248 226 241 242 244 246 262 72 82 98 119 145 150 121 83 44 71 104 124 135 116 113 112 119 121 120 117 115 112 111 110 108 108 110 111 111 108 108 106 103 103 102 102 102 100 97 96 98 100
248 235 228 237 245 256 268 98 110 157 167 172 185 144 100 86 89 109 133 132 117 114 113 121 120 120 119 118 117 115 112 110 109 109 108 106 107 107 109 110 109 110 107 106 107 103 101 102 103
234 237 233 232 232 232 233 177 162 203 208 169 171 171 115 125 117 127 129 122 115 117 119 124 122 121 120 119 119 117 115 113 111 109 109 106 105 109 113 119 118 118 117 112 112 110 109 114 111
248 250 250 253 246 227 203 168 189 203 209 189 169 156 132 139 130 135 128 112 111 118 122 127 127 123 120 120 123 121 118 116 116 114 114 114 111 112 116 122 125 125 127 120 116 116 116 132 137
268 271 253 252 251 248 169 141 139 292 259 61 83 163 141 138 135 136 122 110 105 113 124 131 131 131 128 124 127 127 125 125 124 124 125 125 129 129 127 127 131 133 138 138 138 141 146 166 171
273 253 250 249 249 238 124 139 111 18 335 17 49 50 107 124 134 130 122 117 112 116 122 131 134 130 133 135 136 132 132 135 137 137 136 135 139 140 144 148 150 152 157 165 168 175 183 187 189
220 240 246 288 331 354 99 137 150 193 215 201 140 108 116 131 146 152 152 146 136 137 130 125 129 130 126 132 136 143 144 141 145 143 139 142 150 149 148 162 163 168 172 186 196 199 199 198 194
213 240 260 287 342 345 337 262 233 240 229 210 175 153 151 159 171 174 172 155 148 141 129 124 124 126 125 117 129 128 129 130 143 142 145 164 157 129 121 132 147 166 171 185 212 208 211 217 202
241 246 263 284 344 322 288 272 253 246 251 339 124 150 163 178 187 187 181 161 148 142 139 130 124 119 119 117 123 120 117 116 114 130 138 116 89 94 94 103 126 148 174 191 188 218 234 238 220
238 253 258 270 275 275 278 266 268 261 264 263 171 169 183 190 193 194 183 160 147 144 145 140 132 129 122 116 125 118 114 120 119 109 124 115 104 148 107 77 103 142 180 180 201 222 244 250 263
249 247 249 247 240 246 251 255 250 245 236 218 206 199 199 200 196 194 183 170 161 153 152 150 147 138 136 137 139 137 127 106 96 96 99 116 95 111 133 156 85 315 276 217 220 220 235 239 259
280 272 258 241 229 228 241 250 236 233 223 220 215 206 199 201 201 199 185 175 171 163 155 153 152 146 146 148 157 142 138 120 110 99 94 80 91 103 116 169 211 263 238 271 284 269 287 262 265
240 244 245 226 209 202 211 250 235 209 208 218 216 209 202 199 198 196 186 177 172 164 156 157 155 156 157 153 164 160 141 127 118 111 98 87 85 111 105 167 219 316 353 25 221 190 239 271 266
217 231 235 227 200 190 207 249 233 207 207 217 217 213 204 200 198 193 182 175 172 165 159 155 155 161 157 153 157 154 132 128 121 104 100 91 41 45 90 159 213 273 338 227 231 124 243 263 269
211 227 238 228 198 203 221 246 241 227 225 228 220 215 209 202 199 189 180 175 170 165 161 157 156 161 153 151 142 129 119 121 116 121 133 146 162 301 57 128 223 252 183 219 206 218 254 253 255
272 268 258 261 230 225 240 251 251 235 225 229 224 215 211 205 196 181 177 171 163 160 160 161 160 165 154 153 154 156 172 159 139 148 153 170 189 202 165 233 228 196 203 213 228 227 221 279 313
253 268 273 282 260 272 269 266 259 241 228 222 220 215 209 202 190 177 169 164 166 166 164 164 165 165 161 156 156 157 156 157 163 154 171 213 215 210 193 178 217 225 216 221 224 211 215 247 227
234 240 252 259 284 272 284 278 251 238 226 218 216 211 208 200 187 173 168 168 164 166 165 167 162 158 156 144 130 123 109 107 157 195 206 213 225 216 182 194 196 218 217 219 220 208 213 215 236
238 235 248 256 258 258 234 280 266 232 217 212 207 203 205 197 187 173 169 168 167 162 155 156 151 152 152 147 154 163 176 189 203 194 193 207 208 197 190 194 207 219 214 212 222 217 214 202 224
232 265 246 245 249 269 245 253 269 229 216 203 196 190 186 180 172 164 162 160 154 148 146 150 150 153 153 154 161 172 189 194 177 171 195 216 215 200 193 194 202 219 214 210 217 220 222 217 223
190 206 251 253 245 250 223 221 266 225 203 177 173 165 160 157 153 146 135 128 128 130 135 144 155 162 164 164 169 181 189 181 175 199 216 222 208 211 197 181 191 213 216 219 221 217 226 232 236
192 171 177 194 214 241 208 209 241 197 109 123 137 141 137 137 139 134 131 131 135 142 152 159 162 174 174 169 179 192 192 182 183 194 200 199 215 253 259 222 214 218 229 237 226 219 225 229 231
206 202 194 198 213 231 206 220 234 114 96 87 92 103 104 114 126 134 138 144 148 156 164 164 168 178 174 172 186 186 182 171 171 170 171 184 200 233 240 242 238 243 255 259 245 237 237 236 238
190 220 245 283 291 263 229 217 157 123 121 120 111 102 107 112 116 131 136 141 148 156 164 168 171 170 172 175 172 169 166 154 155 160 157 178 192 217 238 241 244 247 243 236 238 241 246 243 238
233 191 179 191 205 234 235 215 196 156 151 138 129 118 104 106 110 123 136 142 149 154 156 158 160 162 163 163 168 162 151 141 142 143 162 176 183 194 222 243 245 254 249 236 231 244 247 247 250
201 201 199 203 234 217 236 204 38 127 125 130 129 121 115 114 120 122 134 135 132 129 134 138 132 133 147 160 156 146 139 135 136 143 158 163 190 208 220 235 252 264 262 261 251 249 249 250 254
207 206 192 191 228 231 253 273 27 94 92 100 105 106 107 109 112 111 116 119 120 121 119 122 127 127 133 136 131 135 132 132 137 150 150 134 184 236 253 289 291 283 285 275 263 268 269 260 258
Height
1485 1487 1489 1493 1494 1494 1486 1472 1463 1465 1466 1469 1470 1472 1474 1478 1482 1495 1495 1495 1495 1495 1496 1498 1500 1502 1504 1506 1508 1510 1512 1513 1514 1515 1517 1518 1519 1520 1521 1522 1523 1523 1524 1525 1525 1526 1526 1527 1527
1484 1488 1491 1492 1492 1492 1481 1468 1465 1465 1468 1472 1474 1475 1476 1481 1485 1489 1492 1494 1495 1495 1496 1498 1500 1502 1504 1506 1508 1510 1512 1513 1514 1516 1517 1518 1519 1520 1521 1522 1523 1524 1524 1525 1526 1526 1527 1527 1528
1484 1487 1490 1487 1485 1482 1472 1461 1462 1465 1470 1474 1476 1477 1479 1484 1486 1489 1492 1494 1495 1495 1496 1498 1500 1502 1504 1506 1508 1510 1511 1513 1514 1515 1517 1518 1519 1520 1521 1522 1523 1524 1525 1525 1526 1526 1527 1528 1528
1486 1488 1488 1485 1479 1469 1464 1462 1464 1467 1471 1474 1477 1479 1482 1486 1487 1489 1491 1494 1495 1495 1496 1498 1500 1502 1504 1506 1508 1510 1511 1513 1514 1515 1516 1517 1518 1520 1521 1522 1523 1523 1524 1525 1526 1526 1527 1528 1528
1485 1486 1485 1482 1475 1466 1461 1462 1466 1469 1472 1474 1476 1479 1483 1486 1487 1489 1492 1494 1495 1495 1496 1499 1500 1502 1504 1506 1508 1509 1511 1512 1514 1515 1516 1517 1518 1519 1520 1521 1522 1523 1524 1524 1525 1526 1527 1527 1528
1485 1481 1482 1479 1470 1464 1462 1463 1466 1469 1471 1473 1476 1479 1484 1486 1487 1490 1492 1494 1495 1496 1497 1498 1500 1502 1504 1506 1507 1509 1510 1512 1513 1514 1515 1516 1517 1519 1520 1521 1522 1522 1523 1524 1524 1525 1526 1527 1527
1483 1479 1477 1470 1466 1462 1460 1462 1466 1468 1471 1473 1475 1478 1483 1485 1487 1490 1492 1494 1495 1496 1496 1498 1500 1502 1503 1505 1507 1508 1510 1511 1512 1513 1514 1515 1516 1518 1519 1520 1521 1521 1522 1523 1524 1524 1525 1526 1526
1480 1478 1472 1468 1466 1462 1460 1462 1466 1469 1471 1473 1474 1477 1480 1484 1486 1489 1491 1493 1494 1496 1497 1498 1499 1501 1503 1504 1506 1507 1509 1510 1511 1512 1513 1514 1515 1516 1517 1518 1519 1520 1521 1522 1522 1523 1524 1524 1525
1479 1480 1473 1465 1463 1461 1461 1464 1467 1470 1472 1473 1474 1476 1478 1481 1485 1488 1490 1492 1494 1496 1497 1498 1499 1500 1502 1503 1505 1506 1508 1509 1510 1511 1512 1513 1514 1515 1516 1517 1518 1519 1520 1520 1521 1522 1522 1523 1524
1477 1477 1468 1463 1461 1461 1462 1465 1468 1471 1472 1473 1475 1477 1479 1481 1484 1486 1488 1491 1492 1494 1496 1497 1498 1500 1501 1502 1504 1505 1506 1507 1508 1509 1510 1511 1512 1513 1514 1515 1516 1517 1518 1519 1519 1520 1521 1521 1522
1472 1470 1465 1463 1463 1464 1465 1467 1469 1470 1471 1472 1473 1476 1478 1480 1483 1485 1487 1489 1491 1493 1495 1496 1497 1499 1500 1501 1502 1503 1504 1506 1507 1508 1509 1510 1511 1512 1513 1513 1514 1515 1516 1517 1517 1518 1519 1519 1520
1468 1466 1465 1465 1465 1466 1467 1468 1469 1469 1470 1470 1471 1473 1475 1478 1481 1483 1486 1487 1489 1491 1493 1494 1496 1497 1498 1500 1501 1502 1503 1504 1505 1506 1507 1508 1509 1510 1511 1511 1512 1513 1514 1515 1515 1516 1517 1518 1518
1466 1465 1465 1465 1466 1467 1468 1468 1469 1467 1468 1469 1470 1472 1474 1476 1479 1481 1484 1485 1487 1488 1490 1492 1494 1495 1496 1498 1499 1500 1501 1502 1504 1505 1506 1507 1507 1508 1509 1509 1510 1511 1512 1513 1513 1514 1515 1515 1516
1463 1463 1464 1464 1465 1466 1467 1467 1468 1464 1466 1467 1469 1470 1472 1474 1476 1479 1481 1482 1484 1486 1487 1490 1491 1493 1495 1496 1497 1498 1500 1501 1502 1503 1504 1505 1505 1506 1507 1507 1508 1509 1510 1510 1511 1512 1512 1513 1513
1463 1464 1463 1461 1462 1463 1466 1465 1462 1461 1463 1464 1465 1467 1469 1472 1474 1476 1478 1479 1481 1483 1485 1487 1489 1491 1492 1494 1495 1496 1498 1499 1500 1501 1502 1502 1503 1504 1504 1505 1505 1506 1507 1508 1508 1509 1510 1510 1510
1463 1465 1464 1456 1457 1460 1467 1463 1455 1455 1458 1459 1461 1463 1466 1468 1470 1473 1475 1477 1479 1480 1482 1484 1486 1488 1489 1491 1493 1494 1495 1496 1497 1498 1499 1500 1501 1501 1502 1502 1503 1504 1504 1505 1505 1506 1506 1507 1507
1463 1464 1459 1454 1452 1454 1460 1458 1452 1452 1453 1455 1457 1459 1461 1464 1467 1469 1471 1473 1475 1477 1479 1481 1482 1485 1486 1488 1490 1492 1493 1494 1494 1495 1496 1497 1498 1499 1499 1500 1500 1501 1501 1502 1502 1503 1503 1503 1504
1459 1457 1453 1451 1448 1451 1455 1453 1450 1450 1451 1452 1453 1455 1457 1459 1462 1465 1467 1469 1472 1474 1476 1478 1479 1481 1483 1485 1487 1488 1489 1490 1491 1492 1493 1494 1495 1496 1496 1497 1497 1498 1498 1499 1499 1500 1500 1500 1501
1450 1451 1451 1448 1447 1450 1451 1450 1447 1446 1447 1448 1449 1451 1453 1455 1458 1461 1463 1466 1468 1470 1472 1474 1476 1478 1480 1481 1483 1484 1485 1487 1488 1489 1490 1491 1492 1493 1493 1494 1494 1495 1495 1496 1496 1497 1497 1497 1498
1452 1454 1452 1450 1448 1450 1450 1447 1442 1440 1440 1441 1443 1445 1448 1451 1454 1456 1459 1461 1464 1466 1468 1471 1473 1475 1476 1478 1480 1482 1483 1484 1485 1486 1487 1488 1489 1489 1489 1490 1491 1491 1492 1492 1493 1493 1494 1494 1495
1450 1453 1452 1451 1450 1450 1452 1448 1438 1432 1433 1435 1438 1440 1443 1446 1449 1451 1454 1457 1460 1462 1465 1467 1469 1471 1474 1475 1477 1479 1480 1481 1482 1482 1483 1484 1485 1486 1486 1486 1487 1487 1488 1489 1489 1490 1490 1490 1491
1450 1446 1448 1450 1456 1458 1454 1459 1437 1428 1428 1430 1432 1435 1438 1442 1445 1447 1450 1454 1456 1459 1462 1464 1466 1468 1470 1472 1474 1475 1476 1476 1477 1478 1480 1481 1481 1482 1482 1483 1483 1483 1484 1485 1485 1486 1487 1487 1487
1445 1445 1447 1450 1454 1459 1454 1458 1442 1427 1427 1427 1428 1430 1434 1438 1441 1444 1447 1450 1453 1456 1458 1461 1463 1465 1467 1469 1470 1472 1473 1474 1475 1476 1477 1477 1478 1478 1479 1479 1479 1480 1480 1481 1481 1482 1483 1483 1483
1444 1448 1450 1451 1457 1463 1451 1454 1441 1426 1422 1423 1425 1428 1431 1435 1439 1442 1445 1447 1450 1453 1455 1458 1460 1462 1464 1465 1467 1468 1469 1470 1471 1472 1473 1474 1474 1475 1475 1475 1476 1476 1477 1477 1478 1478 1479 1479 1479
1445 1452 1460 1462 1464 1457 1437 1441 1434 1422 1419 1420 1424 1427 1430 1434 1437 1440 1442 1445 1448 1450 1452 1455 1457 1459 1460 1462 1463 1465 1466 1467 1468 1469 1470 1470 1471 1471 1472 1472 1472 1473 1473 1474 1474 1474 1474 1475 1475
1445 1447 1454 1457 1453 1444 1434 1436 1427 1420 1420 1421 1424 1427 1430 1433 1436 1439 1441 1444 1446 1448 1450 1452 1454 1455 1457 1459 1460 1462 1463 1464 1465 1466 1467 1467 1467 1468 1469 1469 1469 1469 1470 1470 1470 1470 1470 1470 1470
1443 1444 1441 1446 1445 1446 1437 1425 1422 1420 1421 1423 1426 1428 1430 1433 1436 1438 1440 1443 1444 1446 1448 1449 1451 1453 1454 1455 1457 1458 1460 1461 1462 1463 1463 1464 1464 1465 1465 1465 1466 1466 1466 1466 1466 1466 1466 1466 1466
1439 1439 1445 1450 1450 1445 1431 1426 1426 1424 1424 1425 1427 1429 1432 1434 1436 1438 1440 1442 1443 1445 1446 1448 1449 1450 1451 1453 1454 1455 1456 1458 1459 1460 1460 1461 1461 1461 1462 1462 1462 1462 1462 1462 1462 1462 1462 1462 1461
1441 1442 1441 1443 1441 1443 1436 1431 1421 1422 1423 1425 1427 1430 1432 1435 1436 1438 1439 1441 1442 1443 1445 1446 1447 1448 1449 1450 1451 1452 1453 1454 1456 1457 1457 1458 1458 1458 1458 1458 1458 1458 1459 1458 1458 1458 1457 1457 1456
1438 1439 1442 1447 1444 1438 1437 1438 1422 1422 1423 1426 1428 1431 1433 1435 1437 1438 1439 1440 1441 1442 1443 1444 1445 1446 1447 1448 1449 1450 1451 1452 1453 1454 1454 1455 1455 1455 1455 1455 1455 1455 1455 1454 1454 1453 1453 1452 1451